sat.trackr.live / text

‹ back to catalog

STARLINK-2378

NORAD 47916 · 2021-021BJ

PAYLOAD ACTIVE UNKNOWN

§ Identity

Operator
Country
US
Launch date
2021-03-14
Launch site
AFETR
Launch vehicle
Mass (kg)
RCS (m²)

Purposes: comms

External: N2YO · Heavens-Above · Gunter

§ Orbital elements

Epoch: 2026-09-19T18:56:31.962912Z

Period
93.92 min
Inclination
53.1583°
Eccentricity
0.0000522
Mean motion
15.33266427 rev/d
Perigee alt
465.7 km
Apogee alt
466.4 km
Semi-major
6,844.2 km
B*
9.8966e-4
RAAN
71.9843°
Arg perigee
9.6403°
Mean anomaly
350.4609°
Rev number
30,615

§ Raw data

STARLINK-23781 47916U 21021BJ  26262.78925883  .00032025  00000+0  98966-3 0  99932 47916  53.1583  71.9843 0000522   9.6403 350.4609 15.33266427306158

JSON: /api/v1/satellites/47916 · /tle

For live sub-satellite position, see the globe view (requires WebGL).

§ Visibility from observer

Set your observer location to see the next 7 days of passes ≥ 10°. The values pass through the URL so the page stays shareable.

No JS? Fill the form by hand. The geolocation button needs JavaScript.